RH
70 75 73 72 71 70 71 70 64 55 50 51 53 57 64 71 72 65 58 56 60 67 71 70 68 65 62 55 47 45 45 48 53 54 52 49 46 43 42 42 42 42 42 41 43 47 46 44 43 38 38 41 39 37 37 34 34 34 32 33 35 32 28 27 26 27 27 24 21 21 21 21 24 25 27 27 27 30 32 32 34 37 39 40 41
72 74 72 73 72 70 70 68 64 56 50 50 55 58 60 65 66 62 56 54 59 68 71 71 72 71 68 60 48 44 45 47 53 55 52 46 41 41 44 45 44 44 44 41 42 47 49 47 44 42 42 44 42 42 42 37 36 36 34 36 37 30 27 30 29 25 25 25 24 26 26 27 31 33 34 35 35 37 39 38 40 43 46 46 47
75 74 71 73 74 74 73 70 66 60 53 51 54 56 57 60 61 60 57 56 60 68 70 71 72 70 68 60 49 45 46 47 51 53 51 47 44 46 49 51 50 49 48 46 44 47 49 48 44 42 43 43 43 47 47 41 38 40 41 42 44 39 32 32 31 27 27 29 31 32 33 35 38 40 42 43 43 44 45 45 47 49 50 50 50
75 74 71 72 74 75 74 73 70 64 56 53 55 57 57 59 62 63 63 61 62 67 68 68 68 66 65 60 50 47 47 47 51 54 55 55 54 53 54 56 57 57 55 54 52 51 51 50 47 43 43 44 44 46 47 43 42 45 46 45 47 47 42 39 35 32 32 34 37 38 38 40 43 44 46 48 49 50 50 50 51 51 52 52 51
76 74 73 75 75 75 78 81 78 70 63 60 60 58 58 61 65 67 67 64 63 64 63 65 66 65 66 62 53 50 50 51 54 56 56 58 58 56 56 57 59 60 59 58 58 56 54 54 51 49 49 50 48 47 46 46 45 46 48 47 48 49 49 47 44 41 40 41 40 41 42 44 46 46 47 50 53 53 53 54 54 53 53 52 50
80 75 75 78 78 76 80 85 84 78 73 72 71 65 60 63 67 69 69 66 64 62 60 59 61 65 68 63 56 55 55 55 58 58 57 57 57 57 56 57 58 59 59 59 60 58 56 55 53 52 52 52 51 50 48 48 48 48 48 47 47 48 49 50 49 49 51 49 45 45 46 48 49 50 51 52 53 54 55 57 56 54 53 51 48
80 77 74 77 78 77 80 84 84 82 78 78 79 73 65 65 68 69 68 67 66 64 59 55 57 64 69 64 59 59 60 59 60 61 60 58 58 59 58 58 59 60 62 64 64 62 61 58 54 53 54 53 52 51 50 49 50 51 51 50 49 50 52 54 54 54 55 54 51 51 52 52 54 55 55 54 54 55 56 58 57 54 53 51 47
83 80 76 79 81 82 85 86 86 85 82 80 80 76 68 66 67 68 67 67 67 65 62 57 58 65 70 67 61 59 60 62 62 62 63 62 61 62 62 63 63 62 64 67 67 67 67 64 61 60 58 57 56 54 53 53 54 55 55 54 54 56 58 60 61 61 61 60 58 57 56 57 58 59 57 56 57 58 58 57 55 52 51 49 46
88 87 84 86 88 87 87 86 86 87 87 85 84 82 75 69 66 65 67 69 68 68 66 62 61 62 64 66 63 57 58 63 63 64 66 64 63 65 66 68 68 67 67 69 69 70 71 68 65 62 60 57 57 58 59 59 60 60 60 59 58 59 61 63 63 64 64 64 64 62 60 59 60 61 60 58 59 59 57 54 52 50 50 48 45
90 89 89 89 90 91 90 87 86 87 88 88 88 88 85 79 72 67 68 71 70 67 67 66 65 63 63 67 65 59 60 63 63 63 61 59 63 67 68 69 69 67 68 71 71 71 71 69 65 61 58 57 57 59 61 62 62 62 62 63 62 60 60 61 61 62 63 65 67 65 64 63 62 62 62 61 58 57 55 54 52 51 50 47 44
94 93 93 91 90 90 88 87 87 86 87 89 90 92 91 89 84 75 69 72 72 69 68 69 69 68 70 73 69 63 63 64 63 59 54 53 59 67 72 73 68 65 66 68 69 68 68 67 65 62 60 59 58 60 62 64 64 63 63 63 61 59 58 58 60 61 63 65 66 66 66 66 64 62 62 61 59 58 59 57 54 52 51 48 47
95 95 93 91 90 87 85 87 90 90 89 88 91 94 92 91 91 82 72 72 75 73 72 73 73 72 74 76 74 69 65 63 61 59 57 56 58 65 74 75 66 63 64 65 67 69 67 64 63 62 62 62 62 62 63 65 65 64 63 62 61 60 59 58 59 60 61 64 66 67 68 68 65 63 63 63 61 60 61 60 57 56 58 59 55
92 93 92 91 90 86 83 85 88 90 90 89 91 94 93 90 88 83 77 77 78 78 77 77 77 77 75 76 79 74 65 61 61 62 62 61 60 65 74 74 66 64 65 65 67 69 69 68 66 66 66 66 66 66 66 66 65 63 61 61 60 60 58 57 57 58 60 63 66 68 68 67 67 67 68 66 64 63 63 63 61 61 63 66 63
88 91 90 88 86 84 84 86 89 91 91 90 91 91 90 89 88 85 81 79 80 80 79 78 81 82 80 80 83 77 67 63 65 65 66 66 67 70 74 72 66 65 66 66 67 68 69 71 72 73 74 74 71 69 68 68 67 66 64 61 60 60 59 57 57 58 60 62 63 65 66 67 67 68 69 67 64 64 65 67 66 65 66 65 61
78 79 79 78 77 79 83 86 86 88 89 89 91 91 88 86 86 85 80 76 75 75 72 73 77 80 80 80 79 76 70 67 68 68 70 72 74 76 76 71 65 63 62 62 64 67 68 69 72 74 77 78 75 72 71 70 70 71 68 65 64 62 61 59 58 59 62 62 62 63 64 66 65 65 67 68 65 64 66 68 68 66 64 62 59
72 72 72 73 74 77 80 80 79 80 84 85 88 91 90 86 83 79 75 72 72 71 68 68 72 74 74 74 74 73 73 71 70 70 71 73 76 78 78 72 65 60 58 57 60 65 67 68 71 73 76 78 75 73 72 70 69 69 68 68 66 62 60 60 61 61 62 61 60 60 62 64 63 63 67 69 67 67 69 71 69 65 62 62 61
73 74 74 75 76 76 78 78 77 77 80 81 82 85 86 86 84 80 78 78 77 74 72 72 74 74 73 73 73 75 74 73 72 70 70 71 74 77 77 72 66 62 59 57 59 64 67 68 71 72 73 74 72 71 70 67 64 62 62 62 60 55 54 56 58 59 59 58 57 58 60 62 63 64 66 66 67 71 73 74 72 67 65 65 61
74 76 75 76 77 77 78 79 79 79 80 81 81 80 81 84 84 84 85 87 84 80 78 78 79 78 76 74 76 77 76 76 74 71 69 70 71 74 75 72 67 63 60 59 61 65 68 70 71 72 72 71 70 69 67 63 59 56 57 57 57 54 54 55 57 58 59 60 60 62 65 67 68 69 69 68 70 72 73 72 71 68 65 64 60
75 74 74 74 74 75 76 78 79 81 81 81 81 80 80 82 81 80 81 82 81 80 79 80 79 78 75 73 73 73 73 73 74 72 71 72 72 72 71 69 67 65 65 67 69 70 72 73 73 74 74 73 72 69 64 59 56 57 59 61 61 59 57 57 57 58 62 64 66 70 73 73 73 73 71 68 68 69 68 68 68 68 66 64 61
75 74 73 73 73 73 73 74 75 77 79 80 81 79 78 79 79 78 77 77 77 76 77 78 78 76 76 75 73 73 71 71 73 74 75 77 77 75 73 72 72 71 73 78 80 80 81 81 79 79 78 76 73 69 66 62 61 63 65 66 66 63 60 60 60 60 62 63 63 64 65 64 65 66 65 63 64 66 66 66 67 68 67 65 61
74 73 72 72 72 72 71 72 73 73 74 75 77 77 78 77 77 78 78 77 77 76 77 79 80 81 82 81 78 77 75 73 75 77 77 79 80 79 77 76 76 77 80 84 87 90 92 89 85 82 79 76 73 70 68 67 67 70 72 71 70 66 63 63 62 62 62 61 59 57 58 60 62 63 63 64 65 66 67 66 66 65 65 64 63
76 75 74 73 72 71 71 72 73 73 72 72 73 75 76 75 74 75 76 77 76 76 78 82 85 87 89 89 87 85 83 82 83 86 87 87 85 83 81 80 83 86 88 88 90 94 95 91 84 79 75 74 73 72 71 71 72 73 74 73 72 71 70 68 65 64 63 60 59 60 62 64 66 67 69 70 70 71 72 71 68 64 62 61 62
79 79 78 78 76 75 75 75 74 73 73 72 73 74 75 74 73 73 73 73 73 74 77 82 86 87 88 89 89 89 88 87 87 89 89 89 87 85 84 84 85 87 87 87 87 88 87 82 78 74 72 72 72 73 74 74 75 75 76 76 75 76 78 76 71 68 68 66 66 67 68 69 71 74 76 78 78 77 76 72 69 66 63 61 60
76 76 76 78 79 79 79 79 78 78 77 76 75 75 75 74 72 70 69 70 71 71 73 76 80 83 84 85 86 85 85 84 85 85 84 82 81 81 81 80 79 78 77 75 74 73 71 69 69 69 71 72 74 76 76 76 76 76 77 78 77 79 84 86 81 77 77 79 79 79 79 81 82 81 81 82 81 79 75 71 68 65 62 61 61
70 68 67 67 69 72 75 77 78 78 78 78 76 75 74 73 71 68 66 66 67 67 68 70 73 77 80 81 82 82 81 80 80 81 80 78 77 76 76 75 74 73 72 71 70 70 70 69 69 69 72 75 77 78 78 78 77 76 78 80 81 83 88 91 86 83 85 86 87 90 91 90 88 88 88 87 83 78 74 70 68 65 62 62 63
66 63 62 60 60 61 63 66 68 68 70 71 71 69 66 65 65 65 64 63 63 63 64 66 68 70 73 74 75 75 74 74 74 74 74 73 73 73 73 72 72 73 73 74 74 75 77 78 77 76 76 76 76 75 74 75 77 79 80 82 82 84 89 90 88 88 89 88 89 92 93 91 91 93 94 91 86 80 75 72 69 67 66 67 68
58 56 56 55 55 54 54 55 56 57 57 57 58 57 55 55 57 60 61 62 62 63 64 64 65 65 67 67 68 68 68 68 68 68 68 68 68 69 69 70 70 71 73 74 75 76 78 80 80 79 78 77 75 74 73 74 76 78 79 79 78 80 85 88 89 90 90 89 91 93 92 92 93 93 92 90 86 81 77 74 72 72 71 71 74
51 50 50 49 48 48 47 47 47 48 47 47 47 48 49 49 52 55 56 57 58 59 60 61 61 61 62 62 62 62 62 62 62 61 61 61 62 62 62 61 61 62 62 63 64 64 65 66 67 67 67 67 67 68 69 70 71 73 75 77 78 80 83 88 93 95 95 94 95 95 94 95 96 93 89 86 84 79 76 75 76 77 77 76 80
50 51 51 50 48 47 46 45 45 44 44 43 43 44 46 46 46 47 48 48 48 48 48 48 48 49 48 48 48 48 48 47 47 47 46 46 46 46 45 45 44 43 43 43 43 43 43 44 46 47 48 50 53 55 56 57 59 60 62 65 69 74 77 79 83 87 90 91 92 94 96 98 96 93 89 86 83 81 81 81 82 83 83 83 86
56 54 53 51 50 50 49 48 47 46 45 43 41 40 39 39 39 38 38 37 36 36 36 35 35 35 34 33 32 32 31 31 30 30 30 29 29 28 27 27 26 25 24 24 25 25 25 27 29 31 34 37 40 42 42 43 43 43 44 46 49 55 59 63 68 74 78 83 88 93 96 97 94 90 89 88 87 88 88 88 87 88 87 86 88
57 54 49 46 46 47 47 44 43 42 41 39 38 36 33 31 29 29 28 28 27 26 26 25 25 25 24 24 24 24 23 23 22 21 21 20 19 18 18 17 17 17 17 17 16 18 21 24 27 29 31 33 34 34 34 35 34 34 34 35 37 39 44 51 59 65 70 76 81 84 85 85 83 80 81 84 87 90 92 92 91 89 88 87 88
53 50 45 41 39 39 38 36 34 33 31 29 30 30 30 29 26 23 22 22 22 22 22 22 21 21 20 21 20 20 19 18 17 16 16 15 14 14 13 13 13 14 14 14 14 18 24 28 28 28 28 28 29 29 29 31 32 32 32 32 32 31 33 38 44 50 55 60 62 63 64 67 71 76 82 88 92 94 94 94 92 90 87 86 87
47 45 42 39 37 35 32 30 27 26 25 24 23 22 22 23 23 23 22 22 21 21 21 21 21 20 20 19 19 18 17 16 15 15 14 15 15 15 15 14 15 15 15 16 20 24 28 28 27 27 27 28 29 30 30 30 32 33 34 34 34 34 35 37 40 43 47 51 53 54 55 59 66 76 84 89 92 94 95 94 92 88 85 84 85
37 35 35 35 35 32 29 26 24 22 21 20 19 18 17 18 19 20 21 22 22 23 23 22 20 19 19 18 17 17 17 17 18 18 18 19 20 20 19 19 20 21 21 23 27 30 30 30 29 29 29 30 32 34 34 34 34 34 35 36 37 40 43 44 44 46 50 56 60 61 63 69 76 80 81 82 87 92 94 92 87 83 82 84 85
32 29 28 28 29 28 25 23 21 19 17 16 16 15 16 16 17 19 20 21 20 22 25 27 25 21 20 20 21 21 21 23 25 25 25 25 25 24 24 25 26 27 27 28 29 30 31 32 32 31 31 32 35 36 37 37 37 37 40 43 43 43 45 48 49 52 58 66 72 72 75 84 91 87 79 75 77 79 81 80 77 75 76 78 80
30 29 27 25 25 24 22 21 19 17 15 14 15 16 16 17 18 19 21 20 19 22 28 31 29 26 24 25 25 26 26 28 28 27 27 27 26 26 28 28 28 28 29 29 31 32 34 35 35 35 35 36 37 38 38 39 40 40 43 49 50 47 46 49 51 55 63 73 80 83 86 91 91 86 80 76 73 72 74 75 74 72 70 68 71
29 30 30 28 26 23 21 20 19 17 16 16 18 19 18 18 19 22 23 22 21 26 31 32 30 29 28 28 28 29 29 30 29 29 29 29 29 29 31 31 30 30 31 33 34 36 37 37 37 38 38 38 39 41 41 41 43 43 44 49 53 54 55 57 59 66 77 86 91 95 98 98 96 92 89 86 84 84 84 83 78 74 69 65 68
31 30 31 30 29 26 23 21 20 19 19 21 21 21 21 22 24 28 30 27 25 30 34 34 33 33 32 29 29 30 31 33 32 31 31 32 32 33 34 33 33 34 34 35 36 37 37 38 39 40 41 42 43 44 43 44 47 47 47 51 55 58 63 70 76 84 92 96 97 98 98 98 96 92 89 87 88 89 88 82 77 75 74 73 74
31 29 28 29 29 28 25 24 23 22 22 23 25 27 28 29 30 34 35 32 30 33 37 37 37 36 33 30 29 30 33 35 34 32 31 32 32 32 34 34 35 36 36 37 38 39 39 40 41 41 44 46 47 47 47 51 56 59 62 66 67 67 73 83 91 96 98 99 99 98 96 94 93 90 89 90 91 90 83 73 69 73 74 72 69
35 33 31 31 32 32 30 28 27 24 24 27 33 36 37 36 36 37 37 36 36 38 39 39 38 36 32 31 31 31 34 37 36 34 33 33 32 33 34 34 35 36 38 40 42 43 43 46 47 48 49 51 51 50 53 60 72 82 86 84 80 78 81 86 92 97 99 99 99 98 96 95 94 93 92 91 88 82 73 64 63 67 69 65 62
38 36 34 35 37 38 37 35 32 30 30 34 38 40 40 40 40 40 38 37 38 39 39 39 39 37 36 35 35 35 37 41 40 38 36 36 36 36 36 36 37 40 42 43 45 46 49 52 54 54 55 57 59 60 60 63 73 84 89 87 85 84 85 88 92 97 100 98 97 97 97 96 93 90 87 82 76 72 70 68 67 69 69 66 63
40 39 40 40 41 43 43 42 40 39 39 40 41 42 42 42 41 40 37 36 38 40 40 41 42 42 40 38 38 39 42 43 42 40 39 38 38 39 39 39 40 43 45 47 48 51 55 58 58 59 63 67 70 72 73 73 75 77 79 83 86 86 85 87 92 97 98 97 96 95 94 91 86 82 78 76 75 76 78 79 77 75 70 66 62
43 44 44 45 45 46 47 47 45 43 42 40 39 41 43 41 39 39 39 39 42 44 45 44 44 43 40 39 40 42 42 41 40 40 39 39 39 41 42 42 44 45 47 50 54 56 59 62 64 67 71 74 76 79 83 88 88 85 80 80 84 88 90 91 91 92 93 94 93 90 86 83 82 82 82 83 85 86 85 83 79 74 67 63 60
48 48 47 46 47 49 50 49 47 44 42 39 38 41 42 40 40 42 43 44 46 47 46 44 43 42 41 42 42 41 40 38 38 38 38 38 39 41 42 43 45 47 48 52 56 59 60 62 66 70 73 75 78 81 86 91 94 93 88 83 83 87 91 92 89 86 86 87 88 88 88 88 88 89 90 90 88 85 82 79 74 69 65 62 59
51 51 50 49 50 51 51 50 48 46 45 43 43 43 42 42 43 45 46 46 47 46 44 43 43 42 43 44 43 40 38 37 37 36 36 36 37 39 42 42 43 45 48 51 55 58 58 60 63 67 70 71 73 77 83 88 92 95 95 93 91 90 90 90 91 91 92 92 92 93 94 94 92 91 91 87 82 78 77 75 72 69 65 60 56
55 54 53 52 52 51 50 49 49 48 48 47 46 45 44 44 45 46 45 44 44 45 44 43 43 42 41 42 41 39 37 37 37 36 36 36 36 38 41 43 44 46 49 52 54 56 57 58 61 65 69 71 71 73 76 81 86 89 91 93 93 92 91 92 94 95 95 94 94 94 93 89 84 79 76 74 72 72 71 69 65 62 57 53 50
58 56 54 52 51 49 49 49 49 49 49 49 48 48 48 46 45 44 42 41 42 44 43 42 41 40 40 39 40 39 38 37 37 37 37 38 39 41 43 46 47 49 52 55 57 59 59 60 61 63 66 68 70 72 73 74 77 81 83 84 85 86 86 87 88 89 88 86 83 79 74 70 68 66 64 64 66 66 65 62 59 58 55 51 50
59 57 55 53 51 49 50 51 51 51 51 52 52 51 49 46 42 41 40 40 41 42 42 41 40 41 41 40 40 41 40 39 38 38 38 40 42 45 46 48 51 53 55 56 57 59 61 62 61 61 61 62 63 65 67 68 68 69 70 71 71 71 71 70 70 69 68 65 63 61 59 60 62 63 62 61 61 61 60 59 58 57 55 53 52
60 58 58 56 53 50 50 52 53 52 52 53 53 51 47 43 41 39 39 39 39 40 41 42 42 42 42 42 41 41 41 41 41 41 40 40 42 45 49 51 53 55 57 60 61 61 62 62 63 64 66 67 66 66 67 67 66 66 66 67 66 66 65 63 62 61 60 59 60 60 61 61 60 59 58 57 58 58 58 58 59 58 56 56 56
61 59 57 54 51 49 49 52 54 54 53 53 51 47 42 40 39 39 40 40 39 39 41 42 43 43 43 42 41 40 40 40 41 42 42 40 39 41 46 50 53 56 59 63 67 68 68 68 69 70 71 72 72 70 66 63 61 61 62 64 65 64 64 63 64 63 63 62 60 59 58 56 56 56 57 58 59 60 60 62 64 65 65 64 64
62 60 56 52 50 49 49 52 54 54 53 53 49 43 39 37 37 37 38 38 38 38 39 41 43 44 43 43 42 42 41 40 40 42 43 42 40 39 41 45 49 52 55 60 66 70 71 71 69 66 63 64 65 64 62 61 60 59 58 58 59 59 60 61 61 60 59 58 57 57 57 58 59 60 61 63 64 65 67 66 65 67 69 70 70